sat.trackr.live / text

‹ back to catalog

STARLINK-2140

NORAD 47730 · 2021-017J

PAYLOAD ACTIVE UNKNOWN

§ Identity

Operator
Country
US
Launch date
2021-03-04
Launch site
AFETR
Launch vehicle
Mass (kg)
RCS (m²)

Purposes: comms

External: N2YO · Heavens-Above · Gunter

§ Orbital elements

Epoch: 2026-09-09T19:11:03.217920Z

Period
94.01 min
Inclination
53.1607°
Eccentricity
0.0001297
Mean motion
15.31700798 rev/d
Perigee alt
469.8 km
Apogee alt
471.6 km
Semi-major
6,848.9 km
B*
2.0592e-4
RAAN
80.1791°
Arg perigee
80.1403°
Mean anomaly
279.9745°
Rev number
30,586

§ Raw data

STARLINK-21401 47730U 21017J   26252.79934280  .00006030  00000+0  20592-3 0  99902 47730  53.1607  80.1791 0001297  80.1403 279.9745 15.31700798305862

JSON: /api/v1/satellites/47730 · /tle

For live sub-satellite position, see the globe view (requires WebGL).

§ Visibility from observer

Set your observer location to see the next 7 days of passes ≥ 10°. The values pass through the URL so the page stays shareable.

No JS? Fill the form by hand. The geolocation button needs JavaScript.